Scott AFB, IL

1:12 PM CST on December 10, 2016 (GMT -0600)
Scott Air Force Base-Midamerica

Weather History for KBLV - October, 2012

Change the Weather History Date:

Saturday, October 13, 2012

  Actual Average Record
Temperature  
Mean Temperature 62 °F -  
Max Temperature 77 °F 71 °F 89 °F (1989)
Min Temperature 49 °F 45 °F 25 °F (1988)
Degree Days  
Heating Degree Days 2    
Growing Degree Days 12 (Base 50)    
Moisture  
Dew Point 58 °F    
Average Humidity 95    
Maximum Humidity 100    
Minimum Humidity 64    
Precipitation  
Precipitation 0.00 in - - ()
Sea Level Pressure  
Sea Level Pressure 30.08 in    
Wind  
Wind Speed 7 mph (South)    
Max Wind Speed 17 mph    
Max Gust Speed 26 mph    
Visibility 6 miles    
Events      
Averages and records for this station are not official NWS values.
T = Trace of Precipitation, MM = Missing Value Source: NWS Daily Summary

Daily Weather History Graph

Daily Weather History Graph

Search for Another Location

Airport or City:

Trip Planner

Search our weather history database for the weather conditions in past years. The results will help you decide how hot, cold, wet, or windy it might be!

Date:

Astronomy

Oct. 13, 2012 Rise Set
Actual Time 7:06 AM CDT 6:23 PM CDT
Civil Twilight 6:40 AM CDT 6:49 PM CDT
Nautical Twilight 6:09 AM CDT 7:20 PM CDT
Astronomical Twilight 5:38 AM CDT 7:51 PM CDT
Moon 4:57 AM CDT (10/13) 5:06 PM CDT (10/13)
Length of Visible Light 12h 09m
Length of Day
11h 16m
Waning Crescent, 5% of the Moon is Illuminated
Oct 13
Waning Crescent
Oct 15
New
Oct 21
First Quarter
Oct 29
Full
Nov 6
Last Quarter

Hourly Weather History & Observations

Time (CDT) Temp. Dew Point Humidity Pressure Visibility Wind Dir Wind Speed Gust Speed Precip Events Conditions
12:55 AM 49.5 °F 49.3 °F 99% 30.22 in 10.0 mi Calm Calm - N/A   Clear
1:55 AM 50.7 °F 50.4 °F 99% 30.20 in 10.0 mi SE 4.6 mph - N/A   Clear
2:55 AM 49.1 °F 48.9 °F 99% 30.17 in 10.0 mi SE 4.6 mph - N/A   Clear
3:41 AM 50.0 °F 50.0 °F 100% 30.14 in 9.0 mi SE 5.8 mph - N/A   Clear
3:52 AM 50.0 °F 50.0 °F 100% 30.14 in 9.0 mi SE 5.8 mph - N/A   Partly Cloudy
3:55 AM 50.2 °F 50.0 °F 99% 30.13 in 9.0 mi SE 5.8 mph - N/A   Partly Cloudy
3:59 AM 50.0 °F 50.0 °F 100% 30.14 in 10.0 mi SE 6.9 mph - N/A   Mostly Cloudy
4:12 AM 51.8 °F 51.8 °F 100% 30.14 in 10.0 mi SE 5.8 mph - N/A   Overcast
4:34 AM 53.6 °F 51.8 °F 94% 30.14 in 10.0 mi SSE 8.1 mph - N/A   Overcast
4:55 AM 53.1 °F 52.9 °F 99% 30.14 in 7.0 mi SSE 5.8 mph - N/A   Overcast
5:01 AM 53.6 °F 53.6 °F 100% 30.14 in 5.0 mi SE 4.6 mph - N/A   Overcast
5:12 AM 53.6 °F 53.6 °F 100% 30.14 in 4.0 mi SSE 5.8 mph - N/A   Overcast
5:24 AM 53.6 °F 53.6 °F 100% 30.13 in 2.5 mi SE 4.6 mph - N/A   Overcast
5:27 AM 53.6 °F 53.6 °F 100% 30.14 in 2.5 mi SSE 4.6 mph - N/A   Overcast
5:29 AM 53.6 °F 53.6 °F 100% 30.14 in 2.0 mi SSE 4.6 mph - N/A   Overcast
5:40 AM 53.6 °F 53.6 °F 100% 30.14 in 1.2 mi SSE 4.6 mph - N/A   Overcast
5:55 AM 53.8 °F 53.8 °F 100% 30.14 in 1.2 mi SSE 5.8 mph - N/A   Overcast
5:56 AM 53.6 °F 53.6 °F 100% 30.14 in 1.0 mi SSE 4.6 mph - N/A   Overcast
6:02 AM 53.6 °F 53.6 °F 100% 30.14 in 1.0 mi South 4.6 mph - N/A   Overcast
6:10 AM 53.6 °F 53.6 °F 100% 30.14 in 0.8 mi SSE 5.8 mph - N/A   Overcast
6:37 AM 55.4 °F 55.4 °F 100% 30.13 in 1.0 mi SSE 6.9 mph - N/A   Mist
6:55 AM 55.2 °F 55.2 °F 100% 30.13 in 1.0 mi South 6.9 mph - N/A   Mist
7:05 AM 55.4 °F 55.4 °F 100% 30.14 in 0.8 mi South 6.9 mph - N/A   Mist
7:17 AM 55.4 °F 55.4 °F 100% 30.14 in 0.8 mi South 8.1 mph - N/A   Overcast
7:22 AM 55.4 °F 55.4 °F 100% 30.13 in 1.0 mi South 9.2 mph - N/A   Overcast
7:37 AM 57.2 °F 57.2 °F 100% 30.13 in 2.0 mi South 11.5 mph - N/A   Overcast
7:55 AM 57.4 °F 57.4 °F 100% 30.12 in 1.8 mi South 11.5 mph - N/A   Overcast
7:56 AM 57.2 °F 57.2 °F 100% 30.12 in 1.2 mi South 11.5 mph - N/A   Overcast
8:04 AM 57.2 °F 57.2 °F 100% 30.11 in 1.0 mi South 10.4 mph - N/A   Overcast
8:29 AM 59.0 °F 59.0 °F 100% 30.12 in 0.8 mi South 10.4 mph - N/A   Overcast
8:32 AM 59.0 °F 59.0 °F 100% 30.12 in 0.8 mi South 10.4 mph - N/A   Overcast
8:46 AM 59.0 °F 59.0 °F 100% 30.11 in 1.0 mi South 11.5 mph - N/A   Overcast
8:55 AM 58.6 °F 58.6 °F 100% 30.10 in 1.0 mi South 12.7 mph - N/A   Overcast
9:03 AM 59.0 °F 59.0 °F 100% 30.10 in 2.5 mi South 12.7 mph - N/A   Overcast
9:10 AM 59.0 °F 59.0 °F 100% 30.10 in 3.0 mi South 11.5 mph - N/A   Overcast
9:20 AM 59.0 °F 59.0 °F 100% 30.11 in 4.0 mi South 12.7 mph - N/A   Overcast
9:54 AM 60.8 °F 60.8 °F 100% 30.11 in 6.0 mi South 11.5 mph - N/A   Overcast
9:55 AM 59.9 °F 59.9 °F 100% 30.11 in 6.0 mi South 10.4 mph - N/A   Overcast
10:05 AM 60.8 °F 60.8 °F 100% 30.11 in 9.0 mi South 10.4 mph - N/A   Overcast
10:23 AM 60.8 °F 60.8 °F 100% 30.10 in 10.0 mi SSW 12.7 mph - N/A   Overcast
10:55 AM 61.3 °F 61.3 °F 100% 30.09 in 9.0 mi South 12.7 mph - N/A   Overcast
11:40 AM 62.6 °F 62.6 °F 100% 30.08 in 10.0 mi South 8.1 mph - N/A   Overcast
11:55 AM 63.9 °F 63.7 °F 99% 30.08 in 10.0 mi South 10.4 mph - N/A   Overcast
12:00 PM 64.4 °F 64.4 °F 100% 30.07 in 10.0 mi SSW 10.4 mph - N/A   Overcast
12:23 PM 68.0 °F 64.4 °F 88% 30.04 in 10.0 mi South 13.8 mph - N/A   Mostly Cloudy
12:34 PM 68.0 °F 64.4 °F 88% 30.04 in 10.0 mi South 12.7 mph - N/A   Mostly Cloudy
12:55 PM 70.7 °F 65.1 °F 82% 30.03 in 10.0 mi South 15.0 mph - N/A   Mostly Cloudy
1:55 PM 74.7 °F 64.8 °F 71% 29.99 in 10.0 mi SSW 12.7 mph - N/A   Partly Cloudy
2:55 PM 76.8 °F 63.9 °F 64% 29.96 in 10.0 mi SW 16.1 mph 26.5 mph N/A   Scattered Clouds
3:55 PM 73.6 °F 64.0 °F 72% 29.94 in 10.0 mi South 17.3 mph - N/A   Scattered Clouds
4:55 PM 72.3 °F 62.6 °F 71% 29.94 in 10.0 mi SSW 13.8 mph - N/A   Partly Cloudy
5:55 PM 71.4 °F 63.3 °F 76% 29.93 in 10.0 mi South 11.5 mph - N/A   Partly Cloudy
6:55 PM 69.1 °F 62.8 °F 80% 29.93 in 10.0 mi SSE 3.5 mph - N/A   Mostly Cloudy
7:55 PM 66.0 °F 63.3 °F 91% 29.92 in 10.0 mi SE 5.8 mph - N/A   Mostly Cloudy
8:55 PM 66.4 °F 64.4 °F 93% 29.90 in 10.0 mi SE 6.9 mph - N/A   Overcast
9:55 PM 68.7 °F 64.0 °F 85% 29.87 in 10.0 mi SSE 12.7 mph - N/A   Overcast
10:55 PM 70.5 °F 62.1 °F 74% 29.83 in 10.0 mi South 13.8 mph - N/A   Mostly Cloudy
11:55 PM 71.1 °F 61.3 °F 71% 29.80 in 10.0 mi South 13.8 mph - N/A   Overcast